Regional Weather Roundup
Issued by NWS

Home | Current Version | Previous Version | Graphics & Text | Print | Product List | Glossary Off
Versions: 1 2 3 4 5 6 7 8 9 10 11 12 13 14 15 16 17 18 19 20 21 22 23 24 25 26 27 28 29 30 31 32 33 34 35 36 37 38 39 40 41 42 43 44 45 46 47 48 49 50

000
ASUS43 KLSX 232259
RWRMO

WEATHER SUMMARY FOR MISSOURI
NATIONAL WEATHER SERVICE SPRINGFIELD MO
600 PM CDT WED APR 23 2014

NOTE: "FAIR" INDICATES FEW OR NO CLOUDS BELOW 12,000 FEET WITH NO
       SIGNIFICANT WEATHER AND/OR OBSTRUCTIONS TO VISIBILITY.
       CURRENT SKY AND/OR WEATHER CONDITIONS ARE NOT AVAILABLE FOR
       CHILLICOTHE AND FARMINGTON.

MOZ001>031-035>038-043-044-053-054-240000-
...NORTHERN AND WESTERN MISSOURI...

CITY           SKY/WX    TMP DP  RH WIND       PRES   REMARKS
KANSAS CTY INT PTSUNNY   71  43  36 SE21G31   29.75F
KANSAS C DTWN  MOSUNNY   75  43  31 SE14G24   29.75F
LEE`S SUMMIT   MOSUNNY   73  42  32 SE15G26   29.78F
ST JOSEPH      CLOUDY    71  42  35 SE20G30   29.72F
CHILLICOTHE      N/A     67  38  34 SE10G21   29.84F
KIRKSVILLE     CLOUDY    60  38  43 SE21G29   29.91F

$$
MOZ066>068-077>081-088>096-101>105-240000-
...SOUTHWEST MISSOURI...

CITY           SKY/WX    TMP DP  RH WIND       PRES   REMARKS
SPRINGFIELD    SUNNY     76  41  28 SE17      29.84F
JOPLIN         SUNNY     79  48  33 S15G23    29.80F

$$
MOZ032>034-039>042-045>050-055>058-069>072-240000-
...CENTRAL MISSOURI...

CITY           SKY/WX    TMP DP  RH WIND       PRES   REMARKS
COLUMBIA       PTSUNNY   64  39  39 E14       29.91F
JEFFERSON CITY MOSUNNY   68  37  32 E16       29.90S
ROLLA          MOSUNNY   67  40  37 NE13      29.89F
SEDALIA        MOSUNNY   72  41  32 SE14      29.86F
OSAGE BEACH    SUNNY     75  34  22 SE10      29.88F

$$
MOZ051-052-059>065-240000-
...EAST CENTRAL MISSOURI...

CITY           SKY/WX    TMP DP  RH WIND       PRES   REMARKS
ST LOUIS INTL  CLOUDY    63  34  33 E14       29.99F
SPIRIT OF STL  CLOUDY    62  34  35 E12       29.96F
ST CHARLES     CLOUDY    62  33  33 E13       29.99F

$$
MOZ072>076-082>087-097>100-106>115-240000-
...SOUTH CENTRAL AND SOUTHEAST MISSOURI...

CITY           SKY/WX    TMP DP  RH WIND       PRES   REMARKS
CAPE GIRARDEAU SUNNY     69  39  33 SE8       29.98S
FARMINGTON     MOSUNNY   66  39  37 E14       29.98F
POPLAR BLUFF   SUNNY     70  38  31 E7        29.95F
WEST PLAINS    SUNNY     73  36  25 SE8       29.93F

$$



USA.gov is the U.S. government's official web portal to all federal, state and local government web resources and services.